Total_Precipitation_Accumulation
2.53 2.45 3.63 3.76 3.14 2.44 2.24 2.20 2.02 1.88 1.87 1.86 1.69 1.58 1.45 1.41 1.27 1.12 0.98 0.90 0.88 0.89 0.96 0.96 1.00 1.10 1.12 1.05 0.97 1.20 1.29 1.24 1.18 1.16 1.30 1.49 1.66 1.86 2.06 2.28 2.54 2.79 2.55
2.09 2.09 3.35 3.57 3.01 2.38 2.07 2.04 1.99 1.88 1.97 1.88 1.82 1.69 1.58 1.42 1.28 1.15 0.94 0.92 0.93 0.93 0.91 0.94 1.00 1.00 1.04 1.11 1.11 1.27 1.31 1.18 1.08 1.16 1.49 1.77 1.81 1.87 1.97 2.03 2.38 2.65 2.43
1.62 1.72 2.55 3.23 2.91 2.40 2.07 1.93 1.97 1.92 2.03 1.98 1.95 1.76 1.62 1.48 1.39 1.22 1.08 1.14 1.10 1.00 0.94 0.90 0.99 1.02 1.03 1.22 1.24 1.26 1.22 1.17 1.14 1.34 1.88 2.65 2.32 1.95 1.97 2.02 2.22 2.14 2.15
1.48 1.57 1.92 2.67 2.55 2.12 1.92 1.91 2.02 2.04 2.16 2.07 1.89 1.68 1.58 1.57 1.51 1.33 1.21 1.31 1.14 1.02 0.97 0.95 1.02 1.11 1.08 1.20 1.21 1.19 1.13 1.18 1.36 1.51 1.94 2.52 2.65 2.21 2.12 2.23 2.18 2.08 2.15
1.45 1.54 2.07 2.66 2.39 2.08 1.89 2.06 2.26 2.25 2.22 2.03 1.76 1.56 1.55 1.60 1.56 1.49 1.45 1.41 1.15 1.06 0.99 0.97 1.05 1.07 1.06 1.12 1.08 1.14 1.18 1.38 1.65 1.58 1.80 2.22 2.75 2.60 2.14 2.15 2.19 2.18 2.33
1.46 1.56 1.96 2.50 2.35 2.13 1.96 2.18 2.30 2.32 2.31 2.18 1.90 1.64 1.59 1.57 1.53 1.49 1.51 1.36 1.20 1.10 1.00 0.97 1.03 1.09 1.07 1.09 1.11 1.13 1.24 1.46 1.53 1.60 1.87 2.24 2.55 2.52 2.12 2.06 2.16 2.38 2.38
1.34 1.37 1.61 2.22 2.30 2.16 2.07 2.28 2.33 2.37 2.43 2.38 2.08 1.87 1.71 1.56 1.51 1.50 1.52 1.38 1.29 1.20 1.13 1.10 1.13 1.13 1.08 1.13 1.10 1.06 1.06 1.10 1.13 1.39 1.64 2.21 2.34 2.28 2.14 2.06 2.05 2.16 2.28
1.43 1.34 1.33 1.96 2.22 2.20 2.25 2.30 2.28 2.29 2.32 2.35 2.13 1.92 1.72 1.57 1.50 1.60 1.62 1.43 1.34 1.21 1.15 1.17 1.22 1.27 1.23 1.20 1.17 1.10 1.05 0.89 0.85 1.07 1.39 1.94 2.29 2.28 2.17 2.21 2.26 2.22 2.36
1.57 1.51 1.39 1.53 1.83 2.17 2.23 2.11 2.10 2.07 2.08 2.18 2.01 1.87 1.67 1.55 1.45 1.51 1.55 1.43 1.38 1.34 1.31 1.29 1.39 1.39 1.25 1.23 1.20 1.12 1.05 0.88 0.89 1.06 1.08 1.73 2.27 2.33 2.11 2.12 2.35 2.48 2.51
1.76 1.63 1.44 1.37 1.45 1.54 1.76 1.92 2.06 2.11 2.09 2.15 1.96 1.74 1.57 1.48 1.35 1.41 1.38 1.35 1.43 1.48 1.53 1.52 1.53 1.46 1.39 1.30 1.19 1.08 0.99 0.81 0.89 0.96 1.25 1.67 2.24 2.43 2.26 2.07 2.06 2.14 2.19
1.54 1.45 1.49 1.48 1.50 1.55 1.50 1.57 1.87 2.01 2.03 1.90 1.82 1.70 1.51 1.23 1.10 1.20 1.21 1.43 1.54 1.64 1.69 1.70 1.65 1.60 1.45 1.27 1.17 1.00 0.82 0.78 0.92 1.04 1.45 1.93 2.36 2.56 2.36 2.04 1.91 1.86 1.92
1.25 1.23 1.30 1.33 1.45 1.51 1.37 1.58 1.86 1.70 1.60 1.36 1.39 1.26 1.27 1.17 1.10 0.94 1.11 1.48 1.62 1.63 1.62 1.67 1.71 1.51 1.22 0.92 0.88 0.82 0.73 0.72 0.78 0.92 1.46 2.16 2.47 2.55 2.29 2.12 2.03 1.94 1.99
1.05 1.03 0.99 1.06 1.12 1.25 1.41 1.65 1.94 2.00 1.80 1.57 1.32 1.24 1.27 1.16 1.04 0.94 0.96 1.12 1.26 1.28 1.14 1.16 1.17 1.03 0.94 0.86 0.84 0.74 0.72 0.70 0.78 0.92 1.57 2.21 2.49 2.58 2.40 2.28 2.27 2.26 2.24
0.87 0.98 0.81 0.71 0.86 1.04 1.16 1.29 1.57 1.64 1.57 1.43 1.22 1.14 1.25 1.24 1.10 1.06 1.06 1.11 1.13 1.12 1.14 1.11 1.14 1.09 0.91 0.82 0.83 0.87 0.84 0.80 0.88 1.09 1.59 2.08 2.46 2.71 2.64 2.55 2.55 2.50 2.59
0.86 0.92 0.83 0.72 0.71 0.79 0.85 0.96 1.11 1.27 1.35 1.36 1.31 1.12 1.14 1.24 1.19 1.17 1.12 1.17 1.07 0.99 1.05 1.11 1.12 1.14 1.03 0.89 0.86 0.88 0.97 0.91 0.92 1.05 1.34 1.77 2.30 2.73 2.92 2.86 2.63 2.50 2.53
0.78 0.88 0.87 0.77 0.76 0.78 0.75 0.75 0.75 0.90 1.08 1.20 1.23 1.13 1.16 1.23 1.24 1.31 1.25 1.18 1.11 1.02 1.05 1.22 1.17 1.19 1.16 1.09 0.95 0.96 0.99 0.95 0.93 0.96 1.09 1.44 1.79 2.17 2.64 2.99 2.83 2.58 2.38
0.75 0.79 0.85 0.83 0.86 0.88 0.84 0.81 0.67 0.71 0.82 0.99 1.13 1.13 1.20 1.16 1.11 1.19 1.20 1.13 1.12 1.13 1.13 1.18 1.22 1.28 1.19 1.11 1.09 1.05 1.04 0.98 0.90 0.92 0.89 1.04 1.15 1.46 1.90 2.36 2.68 2.70 2.57
0.81 0.85 0.91 0.91 0.93 0.96 0.97 0.95 0.87 0.91 0.99 1.06 1.21 1.19 1.17 1.22 1.18 1.17 1.20 1.18 1.22 1.25 1.23 1.26 1.33 1.33 1.28 1.27 1.24 1.22 1.08 1.04 0.96 0.92 0.87 0.89 0.95 0.95 1.17 1.47 1.88 2.28 2.53
0.77 0.81 0.86 0.95 0.97 0.99 1.02 1.10 1.21 1.26 1.26 1.26 1.32 1.26 1.17 1.21 1.26 1.38 1.41 1.41 1.37 1.39 1.38 1.33 1.36 1.28 1.28 1.30 1.24 1.26 1.21 1.16 1.06 0.88 0.92 0.93 0.93 0.87 0.92 0.89 1.05 1.33 1.73
0.68 0.74 0.80 0.87 1.03 1.14 1.18 1.18 1.34 1.40 1.47 1.53 1.57 1.42 1.30 1.36 1.49 1.68 1.77 1.67 1.63 1.62 1.61 1.55 1.60 1.49 1.38 1.41 1.30 1.28 1.24 1.15 1.15 1.06 1.00 0.97 1.02 0.97 0.90 0.80 0.78 0.74 0.97
0.57 0.62 0.70 0.76 0.92 1.02 1.06 1.19 1.39 1.55 1.72 1.87 1.94 1.82 1.67 1.65 1.81 1.95 1.88 1.96 1.98 1.84 1.84 1.90 1.94 1.91 1.73 1.60 1.64 1.52 1.27 1.08 1.12 1.05 0.99 1.03 1.08 1.16 1.16 1.03 0.89 0.80 0.79
0.37 0.41 0.50 0.59 0.65 0.79 0.96 1.21 1.42 1.71 1.78 1.85 1.97 2.02 1.94 1.88 2.04 2.09 2.16 2.24 2.27 2.27 2.20 2.09 2.21 2.36 2.10 1.88 1.97 2.24 1.87 1.51 1.14 0.90 0.96 0.98 1.06 1.29 1.34 1.15 0.96 0.88 0.87
0.28 0.31 0.40 0.53 0.65 0.87 1.10 1.42 1.70 1.99 2.08 2.12 2.07 2.11 2.16 2.20 2.26 2.30 2.36 2.41 2.42 2.27 2.26 2.36 2.49 2.83 2.65 2.28 2.08 2.33 2.18 1.87 1.57 1.12 0.98 0.98 1.06 1.23 1.35 1.37 1.25 1.18 1.08
0.26 0.32 0.46 0.66 0.87 1.13 1.45 1.83 2.09 2.34 2.46 2.29 2.25 2.24 2.22 2.18 2.22 2.34 2.35 2.33 2.30 2.24 2.30 2.36 2.41 2.83 3.05 2.75 2.40 1.99 1.78 1.73 1.83 1.55 1.12 1.03 1.10 1.10 1.23 1.32 1.27 1.33 1.33
0.41 0.50 0.68 0.95 1.26 1.52 1.76 1.96 2.20 2.33 2.33 2.27 2.22 2.23 2.13 2.09 2.08 2.11 2.11 2.22 2.24 2.27 2.34 2.50 2.63 2.89 2.92 2.91 2.72 2.49 2.26 1.93 1.59 1.66 1.60 1.30 1.22 1.11 1.20 1.33 1.38 1.47 1.50
0.59 0.75 0.94 1.13 1.44 1.62 1.75 1.86 2.02 2.16 2.21 2.19 2.18 2.21 2.20 2.16 2.05 1.98 1.92 2.01 2.14 2.29 2.34 2.43 2.60 2.85 2.96 3.04 2.95 2.67 2.56 2.39 2.09 1.97 1.71 1.55 1.52 1.28 1.24 1.28 1.31 1.44 1.60